Truckee-Tahoe, CA

11:04 AM PDT on June 22, 2017 (GMT -0700)
Truckee-Tahoe

Weather History for KTRK - May, 2013

Change the Weather History Date:

Monday, May 6, 2013

  Actual Average Record
Temperature  
Mean Temperature 40 °F -  
Max Temperature 46 °F 60 °F 80 °F (1987)
Min Temperature 35 °F 29 °F 17 °F (1986)
Degree Days  
Heating Degree Days 24    
Moisture  
Dew Point 38 °F    
Average Humidity 92    
Maximum Humidity 100    
Minimum Humidity 71    
Precipitation  
Precipitation 0.53 in - - ()
Sea Level Pressure  
Sea Level Pressure 29.95 in    
Wind  
Wind Speed 3 mph (SW)    
Max Wind Speed 9 mph    
Max Gust Speed 17 mph    
Visibility 7 miles    
Events Rain , Thunderstorm    
Averages and records for this station are not official NWS values.
T = Trace of Precipitation, MM = Missing Value Source: NWS Daily Summary

Daily Weather History Graph

Daily Weather History Graph

Search for Another Location

Airport or City:

Trip Planner

Search our weather history database for the weather conditions in past years. The results will help you decide how hot, cold, wet, or windy it might be!

Date:

Astronomy

May. 06, 2013 Rise Set
Actual Time 5:55 AM PDT 7:59 PM PDT
Civil Twilight 5:26 AM PDT 8:28 PM PDT
Nautical Twilight 4:50 AM PDT 9:04 PM PDT
Astronomical Twilight 4:11 AM PDT 9:44 PM PDT
Moon 3:59 AM PDT (5/6) 5:05 PM PDT (5/6)
Length of Visible Light 15h 02m
Length of Day
14h 03m
Waning Crescent, 10% of the Moon is Illuminated
May 6
Waning Crescent
May 9
New
May 17
First Quarter
May 24
Full
May 31
Last Quarter

Hourly Weather History & Observations

Time (PDT) Temp. Windchill Dew Point Humidity Pressure Visibility Wind Dir Wind Speed Gust Speed Precip Events Conditions
12:15 AM 41.0 °F - 41.0 °F 100% 29.93 in 10.0 mi Calm Calm - N/A   Overcast
12:35 AM 41.0 °F 39.0 °F 41.0 °F 100% 29.93 in 10.0 mi NW 3.5 mph - N/A   Mostly Cloudy
12:55 AM 41.0 °F - 39.2 °F 93% 29.92 in 10.0 mi Calm Calm - N/A   Overcast
1:15 AM 41.0 °F - 39.2 °F 93% 29.93 in 10.0 mi Calm Calm - N/A   Overcast
1:35 AM 41.0 °F 39.0 °F 41.0 °F 100% 29.92 in 8.0 mi North 3.5 mph - 0.01 in Rain , Thunderstorm Light Rain
1:55 AM 41.0 °F - 41.0 °F 100% 29.92 in 10.0 mi Calm Calm - 0.02 in   Mostly Cloudy
2:15 AM 41.0 °F - 41.0 °F 100% 29.92 in 10.0 mi Calm Calm - N/A   Overcast
2:35 AM 41.0 °F 39.0 °F 41.0 °F 100% 29.91 in 10.0 mi ENE 3.5 mph - N/A   Overcast
2:55 AM 41.0 °F 39.0 °F 41.0 °F 100% 29.91 in 10.0 mi NNW 3.5 mph - N/A Rain Light Rain
3:15 AM 41.0 °F 36.4 °F 41.0 °F 100% 29.90 in 4.0 mi North 6.9 mph - N/A   Overcast
3:35 AM 41.0 °F 39.0 °F 41.0 °F 100% 29.90 in 6.0 mi WSW 3.5 mph - N/A Rain Light Rain
3:55 AM 41.0 °F 39.0 °F 41.0 °F 100% 29.90 in 7.0 mi SW 3.5 mph - N/A Rain Light Rain
4:15 AM 41.0 °F 39.0 °F 41.0 °F 100% 29.90 in 7.0 mi North 3.5 mph - 0.01 in Rain Light Rain
4:35 AM 41.0 °F 39.0 °F 41.0 °F 100% 29.90 in 4.0 mi NNE 3.5 mph - 0.03 in Rain Light Rain
4:55 AM 41.0 °F - 39.2 °F 93% 29.90 in 4.0 mi Calm Calm - 0.05 in Rain Light Rain
5:15 AM 39.2 °F 35.0 °F 39.2 °F 100% 29.91 in 4.0 mi ENE 5.8 mph - 0.06 in Rain Rain
5:35 AM 39.2 °F 33.0 °F 37.4 °F 93% 29.91 in 3.0 mi SE 9.2 mph - 0.13 in Rain Rain
5:55 AM 37.4 °F 32.1 °F 35.6 °F 93% 29.92 in 3.0 mi SSE 6.9 mph - 0.20 in Rain Rain
6:15 AM 35.6 °F 30.7 °F 35.6 °F 100% 29.92 in 3.0 mi SSE 5.8 mph - 0.05 in Rain Rain
6:35 AM 35.6 °F - 33.8 °F 93% 29.92 in 3.0 mi Calm Calm - 0.08 in Rain Light Rain
7:45 AM 37.4 °F - 35.6 °F 93% 29.92 in 3.0 mi Calm Calm - N/A Rain Light Rain
8:50 AM 39.2 °F - 35.6 °F 87% 29.94 in 5.0 mi Calm Calm - N/A Rain Light Rain
9:45 AM 41.0 °F 39.0 °F 37.4 °F 87% 29.95 in 6.0 mi SSW 3.5 mph - N/A Rain Light Rain
10:45 AM 41.0 °F 35.8 °F 37.4 °F 87% 29.96 in 8.0 mi WSW 8.1 mph - N/A   Overcast
11:45 AM 42.8 °F - 37.4 °F 81% 29.96 in 8.0 mi Calm Calm - N/A   Overcast
12:50 PM 44.6 °F 40.7 °F 37.4 °F 76% 29.96 in 8.0 mi WNW 6.9 mph - N/A   Overcast
1:45 PM 41.0 °F 37.1 °F 39.2 °F 93% 29.96 in 3.0 mi SSE 5.8 mph - N/A Rain Light Rain
2:45 PM 44.6 °F 40.2 °F 39.2 °F 81% 29.96 in 8.0 mi West 8.1 mph - N/A   Overcast
3:45 PM 46.4 °F 42.4 °F 37.4 °F 71% 29.95 in 8.0 mi West 8.1 mph - N/A   Overcast
4:45 PM 44.6 °F 40.2 °F 37.4 °F 76% 29.94 in 8.0 mi West 8.1 mph - N/A   Overcast
5:50 PM 44.6 °F 40.2 °F 37.4 °F 76% 29.96 in 8.0 mi West 8.1 mph - N/A   Overcast
5:55 PM 44.6 °F 39.7 °F 37.4 °F 76% 29.95 in 10.0 mi West 9.2 mph - N/A   Overcast
6:15 PM 41.0 °F 35.2 °F 37.4 °F 87% 29.95 in 7.0 mi West 9.2 mph - N/A   Overcast
6:35 PM 41.0 °F 36.4 °F 35.6 °F 81% 29.96 in 10.0 mi West 6.9 mph - N/A   Overcast
6:55 PM 41.0 °F 35.8 °F 35.6 °F 81% 29.96 in 10.0 mi West 8.1 mph 17.3 mph N/A   Overcast
7:15 PM 41.0 °F 38.0 °F 35.6 °F 81% 29.97 in 8.0 mi NW 4.6 mph - N/A Rain Light Rain
7:35 PM 39.2 °F - 37.4 °F 93% 29.98 in 3.0 mi Calm Calm - 0.03 in Rain Light Rain
7:55 PM 39.2 °F - 37.4 °F 93% 29.99 in 4.0 mi Calm Calm - 0.06 in Rain Light Rain
8:15 PM 39.2 °F 34.2 °F 37.4 °F 93% 29.99 in 6.0 mi ESE 6.9 mph - 0.01 in Rain Light Rain
8:35 PM 39.2 °F 35.9 °F 37.4 °F 93% 30.00 in 7.0 mi ESE 4.6 mph - 0.02 in Rain Light Rain
8:55 PM 39.2 °F 35.9 °F 37.4 °F 93% 30.00 in 4.0 mi ESE 4.6 mph - 0.05 in Rain Light Rain
9:15 PM 37.4 °F 34.9 °F 37.4 °F 100% 30.01 in 4.0 mi SE 3.5 mph - 0.04 in Rain Light Rain
9:35 PM 37.4 °F 34.9 °F 35.6 °F 93% 30.02 in 5.0 mi SE 3.5 mph - 0.06 in Rain Light Rain
9:55 PM 37.4 °F 34.9 °F 35.6 °F 93% 30.02 in 7.0 mi SE 3.5 mph - 0.06 in Rain Light Rain
10:15 PM 37.4 °F - 35.6 °F 93% 30.02 in 10.0 mi Calm Calm - N/A   Overcast
10:35 PM 37.4 °F 32.8 °F 35.6 °F 93% 30.02 in 10.0 mi ESE 5.8 mph - 0.01 in   Overcast
10:55 PM 37.4 °F 34.9 °F 35.6 °F 93% 30.02 in 10.0 mi SSE 3.5 mph - 0.01 in   Overcast
11:15 PM 37.4 °F - 35.6 °F 93% 30.02 in 10.0 mi Calm Calm - N/A   Overcast
11:35 PM 37.4 °F - 35.6 °F 93% 30.02 in 10.0 mi Calm Calm - N/A   Overcast
11:55 PM 37.4 °F - 35.6 °F 93% 30.02 in 10.0 mi Calm Calm - N/A   Mostly Cloudy